Location: *
(45.4590°N, 16.3650°E)
Time: 21:50:31
(UTC+00:00)

Cosmos 1726 Rocket - Pass Details

Date: 17 January 2020
Orbit: 602 x 630 km, 82.5° (Epoch: 28 February)

Event Time Altitude Azimuth Distance (km) Brightness Sun altitude
Rises 16:11:21 0° 350° (N) 2,897 6.9 -5.8°
Reaches altitude 10° 16:13:35 10° 350° (N) 1,982 6.0 -6.2°
Maximum altitude 16:17:59 84° 263° (W) 619 3.6 -6.9°
Drops below altitude 10° 16:22:18 10° 175° (S) 1,950 6.4 -7.6°
Sets 16:24:29 0° 175° (S) 2,845 7.2 -8.0°
